Flag for U.S.A. Weather past 2 weeks in Raleigh, North Carolina, U.S.A.

63 °F

Light rain. Low clouds.

Feels Like: 63 °F
Forecast: 62 / 70 °F
Wind: 18 mph from Northeast

Location: Raleigh-Durham International Airport

Current Time: Oct 4, 2015 at 9:13:41 AM

Latest Report: Oct 4, 2015 at 8:51 AM

Visibility: 8 mi

Pressure: 29.92 "Hg

Humidity: 93%

Dew point: 61 °F

Location of RaleighLocation

Historic Weather in Raleigh — Graph


Raleigh temperature yesterday

Maximum temperature yesterday: 68 °F (at 11:51 PM)
Minimum temperature yesterday: 53 °F (at 3:51 AM)
Average temperature yesterday: 60 °F

Past Weeks' High & Low Weather Summary

High87 °F (Sep 19, 1:51 PM)100% (Sep 25, 6:51 AM)30.20 "Hg (Sep 25, 6:51 AM)
Low53 °F (Oct 3, 3:51 AM)45% (Sep 19, 3:51 PM)29.74 "Hg (Sep 30, 3:51 AM)
Average69 °F85%30.00 "Hg
* Reported Sep 19 7:02 AM — Oct 4 7:51 AM, Raleigh, Weather by CustomWeather, © 2015

Note: Actual official high and low records may vary slightly from our data, if they occured in-between our weather recording intervals... More about our weather records


Raleigh weather history for previous 24 hours

Time TempWeatherWind HumidityBarometerVisibility
7:51 AM
Sun, Oct 4
63 °FOvercast.20 mph90%29.90 "Hg10 mi
6:51 AM63 °FDrizzle. Fog.18 mph93%29.88 "Hg4 mi
5:51 AM63 °FFog.17 mph93%29.86 "Hg4 mi
4:51 AM63 °FFog.14 mph93%29.87 "Hg6 mi
3:51 AM63 °FLight rain. Fog.18 mph97%29.87 "Hg5 mi
2:51 AM65 °FLight rain. Fog.15 mph94%29.87 "Hg5 mi
2:01 AM66 °FRain. Fog.22 mph94%29.87 "Hg1 mi
12:51 AM68 °FLow clouds.16 mph93%29.85 "Hg10 mi
11:51 PM
Sat, Oct 3
68 °FLow clouds.13 mph93%29.85 "Hg9 mi
10:51 PM65 °FLight rain. Mostly cloudy.10 mph94%29.86 "Hg9 mi
9:51 PM64 °FLight rain. Mostly cloudy.14 mph94%29.86 "Hg10 mi
8:51 PM63 °FLow clouds.12 mph93%29.86 "Hg10 mi
7:51 PM63 °FLow clouds.12 mph93%29.86 "Hg10 mi
6:51 PM63 °FLow clouds.16 mph93%29.85 "Hg2 mi
6:04 PM63 °FLow clouds.12 mph94%29.87 "Hg2 mi
4:51 PM63 °FLow clouds.16 mph90%29.85 "Hg10 mi
3:51 PM62 °FLow clouds.10 mph93%29.85 "Hg2 mi
2:51 PM61 °FLight rain. Fog.10 mph93%29.86 "Hg2 mi
1:51 PM62 °FLow clouds.13 mph93%29.85 "Hg2 mi
12:51 PM62 °FLow clouds.10 mph90%29.86 "Hg2 mi
11:51 AM59 °FDrizzle. Fog.9 mph96%29.87 "Hg1 mi
10:51 AM56 °FDrizzle. Fog.10 mph97%29.87 "Hg1 mi
9:51 AM55 °FDrizzle. Fog.13 mph96%29.88 "Hg2 mi
Weather by CustomWeather, © 2015

See weather overviewHow to use our weather pages